Portada
METAR-TAF:

METAR-TAF

Aeroports :

Matsumoto, Japó

latitud: 36-10N, longitud: 137-56E, altitud: 668 m

Observació

L'informe es va fer fa 32 minuts, a les 02:00 UTC
Vent 8 kt del Nord, variant entre Nord/Nord-Oest i Nord-Est
Temperatura 25°C
Humitat 65%
Pressió 1006 hPa
Visibilitat 10 km o més
Escasses núvols a una alçada de 1500 ft
Núvols disperses a una alçada de 2500 ft
Cel ennuvolat a una alçada de 4000 ft

METAR: RJAF 160200Z 36008KT 330V050 9999 FEW015 SCT025 BKN040 25/18 Q1006

Hora: 11:32 (02:32 UTC)


TAF: manca

Observacions i pronòstics meteorològics de més de 4000 aeroports (METAR i TAF).

Les estacions disponibles són els punts grocs i vermells al mapa.

Posi el ratolí al punt desitjat per veure el nom de l'estació.

Feu clic per veure les observacions i els pronòstics meteorològics.

Per canviar el mapa: feu clic els botons verds amb una creu de color negre per apropar; al botó verd amb un guió per allunyar la imatge; o en les fletxes verdes per a mapes adjacents.


METAR-TAF: